Location: Brookview Estates
(36.0476°N, 86.6931°W)
Time: 09:09:42
(UTC+00:00)

X-37B - Visible Passes

Search period start: 04 March 2021 00:00
Search period end: 14 March 2021 00:00
Orbit: 383 x 391 km, 45.0° (Epoch: 27 February)

Date Brightness Start Highest point End Pass type
(mag) Time Alt. Az. Time Alt. Az. Time Alt. Az.
04 Mar 1.3 10:52:49 36° SSW 10:52:49 36° SSW 10:55:36 10° SSE visible
09 Mar 2.7 01:07:03 10° S 01:08:11 16° S 01:08:11 16° S visible
10 Mar 2.8 01:44:16 10° SW 01:45:35 23° SW 01:45:35 23° SW visible
11 Mar 1.2 00:46:09 10° SW 00:49:10 39° SE 00:50:31 25° E visible
12 Mar 1.2 01:24:14 10° WSW 01:27:22 51° NNW 01:27:38 49° N visible
13 Mar 0.6 00:25:47 10° WSW 00:28:59 83° SSE 00:32:11 10° ENE visible
13 Mar 3.5 02:03:18 10° WNW 02:04:37 18° NW 02:04:37 18° NW visible
